Location: ??????????
(44.2167°N, 135.5333°E)
Time: 16:35:43
(UTC+00:00)

SL-19 R/B - Pass Details

Date: 15 June 2025
Orbit: 874 x 1208 km, 100.5° (Epoch: 10 April)

Event Time Altitude Azimuth Distance (km) Brightness Sun altitude
Rises 16:29:49 0° 15° (NNE) 3,497 9.0 -19.3°
Reaches altitude 10° 16:32:12 10° 14° (NNE) 2,541 7.9 -19.1°
Maximum altitude 16:37:47 79° 289° (WNW) 897 4.3 -18.7°
Enters shadow 16:40:29 32° 207° (SSW) 1,462 4.9 -18.5°
